This is the latest recevied weather packets stored in our database for station/object YM7KGL-1. If no packets are shown the sender has not sent any weather packets the latest 10 day(s).
| Time | Temp. | Humidity | Pressure | Rain* | Wind** | Luminosity | Snow |
|---|---|---|---|---|---|---|---|
| 1778156207 | 22.78° C | 50% | 1018.6 hPa | - | - | - | - |
| 1778155306 | 22.78° C | 50% | 1018.6 hPa | - | - | - | - |
| 1778154867 | 22.78° C | 49% | 1018.7 hPa | - | - | - | - |
| 1778154406 | 22.78° C | 49% | 1018.7 hPa | - | - | - | - |
| 1778153962 | 23.33° C | 49% | 1018.7 hPa | - | - | - | - |
| 1778153061 | 23.33° C | 49% | 1018.8 hPa | - | - | - | - |
| 1778152161 | 23.89° C | 49% | 1018.9 hPa | - | - | - | - |
| 1778151260 | 24.44° C | 49% | 1019 hPa | - | - | - | - |
| 1778150555 | 24.44° C | 48% | 1018.8 hPa | - | - | - | - |
| 1778149655 | 24.44° C | 49% | 1018.9 hPa | - | - | - | - |
| 1778148755 | 24.44° C | 49% | 1019 hPa | - | - | - | - |
| 1778147855 | 24.44° C | 49% | 1019.1 hPa | - | - | - | - |
| 1778147158 | 25° C | 48% | 1019.1 hPa | - | - | - | - |
| 1778146258 | 25° C | 48% | 1018.9 hPa | - | - | - | - |
| 1778145357 | 25° C | 48% | 1018.9 hPa | - | - | - | - |
| 1778144457 | 25° C | 49% | 1019.2 hPa | - | - | - | - |
| 1778143598 | 25° C | 49% | 1019.3 hPa | - | - | - | - |
| 1778142698 | 24.44° C | 49% | 1019.3 hPa | - | - | - | - |
| 1778141798 | 24.44° C | 49% | 1019.5 hPa | - | - | - | - |
| 1778141239 | 24.44° C | 49% | 1019.5 hPa | - | - | - | - |
| 1778140897 | 24.44° C | 49% | 1019.5 hPa | - | - | - | - |
| 1778140085 | 23.89° C | 49% | 1019.3 hPa | - | - | - | - |
| 1778139184 | 23.89° C | 49% | 1019.3 hPa | - | - | - | - |
| 1778138284 | 23.33° C | 50% | 1019.5 hPa | - | - | - | - |
| 1778137384 | 23.33° C | 50% | 1019.4 hPa | - | - | - | - |
* Rain since midnight (hover to see other rain measurements)
** Current wind speed in m/s (hover to see current wind gust speed)